Tenerife > ESTACION METEOROLÓGICA Tamaimo - Santiago del Teide

DATOS ACTUALES Online

Ultima actulizacion 16 minutos

16.3 ºC

Temperatura

68

Humedad (%)

950.22

Presión (mb)

0

Precipitación (mm)

27.8 NO

Viento (Km/h)

DATOS DIARIOS

Temperatura últimas 24 horas (ºC)

Humedad últimas 24 horas (%)

Presión atmosférica últimas 24 horas (mb)

Precipitaciones últimas 23 horas (mm)

Viento últimas 24 horas (Km/h)

Hora Temperatura (°C) ºC Precipitación (mm) mm Presión (mb) mb Humedad (%) % Viento (Km/h) km/h
28 - 23:00 16.1 0 950 73 22.1 NO
29 - 00:00 15.9 0 950 73 20.8 NO
29 - 01:00 14.9 0 950 75 26.9 NO
29 - 02:00 15.2 0 950 73 21.1 NO
29 - 03:00 15 0 950 73 35.3 NO
29 - 04:00 15.5 0 950 75 18.9 N
29 - 05:00 15.8 0 950 87 5 W
29 - 06:00 15.7 0 950 89 7 S
29 - 07:00 15.7 0 950 89 7.1 SW
29 - 08:00 15.6 0 950 91 11.3 S
29 - 09:00 16.2 0 951 83 6.6 SW
29 - 10:00 16.6 0 951 76 11.8 SW
29 - 11:00 17.3 0 951 75 15.6 SW
29 - 12:00 18.2 0 951 67 19.1 SW
29 - 13:00 18.5 0 951 67 19.8 SW
29 - 14:00 18.9 0 950 66 23.2 SW
29 - 15:00 18.5 0 950 66 26.4 SW
29 - 16:00 19.1 0 950 66 25.5 SW
29 - 17:00 19 0 950 67 17.6 S
29 - 18:00 17.8 0 949 75 30.5 N
29 - 19:00 17.1 0 949 74 38.5 N
29 - 20:00 16.7 0 949 73 36.4 N
29 - 21:00 16.3 0 950 72 34.3 N
29 - 22:00 16.2 0 950 70 25.7 N
29 - 23:00 16.3 0 950 68 27.8 NO
Apalmet utiliza cookies propias y de terceros para mejorar la usabilidad y la experiencia web. Política de cookies.